| time (UTC) | temp C | wind direction | speed KPH | gust KPH | rain 1hr cm | rain 24hr cm | rain mn cm | humidity % | barometer mb |
| 20260505221524 | 18 | 305 | 4.8 | 17.7 | 0.00 | 0.76 | 0.76 | 43 | 1010.1 |
| 20260505220012 | 20 | 183 | 4.8 | 22.5 | 0.00 | 0.76 | 0.76 | 41 | 1009.8 |
| 20260505214515 | 20 | 144 | 3.2 | 14.5 | 0.00 | 0.76 | 0.76 | 41 | 1010.1 |
| 20260505213021 | 19 | 262 | 4.8 | 20.9 | 0.00 | 0.76 | 0.76 | 44 | 1010.3 |
| 20260505211535 | 18 | 291 | 1.6 | 12.9 | 0.00 | 0.76 | 0.76 | 49 | 1010.8 |
| 20260505210028 | 18 | 271 | 6.4 | 25.7 | 0.00 | 0.76 | 0.76 | 48 | 1011.1 |
| 20260505204511 | 20 | 328 | 8.0 | 19.3 | 0.03 | 0.76 | 0.76 | 45 | 1010.8 |
| 20260505203015 | 19 | 15 | 3.2 | 19.3 | 0.03 | 0.76 | 0.76 | 49 | 1011.1 |
| 20260505201523 | 18 | 203 | 3.2 | 11.3 | 0.03 | 0.76 | 0.76 | 54 | 1011.3 |
| 20260505200025 | 17 | 77 | 4.8 | 17.7 | 0.03 | 0.76 | 0.76 | 58 | 1011.6 |
| 20260505194526 | 19 | 306 | 8.0 | 30.6 | 0.00 | 0.74 | 0.74 | 49 | 1011.2 |
| 20260505193014 | 20 | 248 | 3.2 | 14.5 | 0.00 | 0.74 | 0.74 | 48 | 1011.1 |
| 20260505191520 | 18 | 345 | 3.2 | 16.1 | 0.00 | 0.74 | 0.74 | 52 | 1011.0 |
| 20260505190023 | 18 | 359 | 4.8 | 16.1 | 0.00 | 0.74 | 0.74 | 48 | 1011.4 |
| 20260505184514 | 20 | 255 | 4.8 | 12.9 | 0.00 | 0.74 | 0.74 | 49 | 1011.3 |
| 20260505183013 | 20 | 254 | 6.4 | 14.5 | 0.00 | 0.74 | 0.74 | 49 | 1011.3 |
| 20260505181516 | 20 | 34 | 3.2 | 9.7 | 0.00 | 0.74 | 0.74 | 50 | 1011.4 |
| 20260505180019 | 18 | 320 | 3.2 | 8.0 | 0.00 | 0.74 | 0.74 | 59 | 1011.9 |
| 20260505174524 | 18 | 303 | 3.2 | 14.5 | 0.03 | 0.74 | 0.74 | 65 | 1012.1 |
| 20260505173007 | 18 | 314 | 3.2 | 11.3 | 0.03 | 0.74 | 0.74 | 63 | 1012.0 |
| 20260505171513 | 17 | 345 | 3.2 | 8.0 | 0.03 | 0.74 | 0.74 | 77 | 1012.3 |
| 20260505170023 | 16 | 201 | 1.6 | 6.4 | 0.03 | 0.74 | 0.74 | 78 | 1012.6 |
| 20260505164520 | 16 | 305 | 1.6 | 4.8 | 0.00 | 0.71 | 0.71 | 77 | 1012.4 |
| 20260505163028 | 15 | 211 | 0.0 | 8.0 | 0.00 | 0.71 | 0.71 | 82 | 1012.4 |
| 20260505161508 | 15 | 281 | 3.2 | 8.0 | 0.00 | 0.71 | 0.71 | 83 | 1012.3 |
| 20260505153024 | 13 | 354 | 1.6 | 3.2 | 0.03 | 0.71 | 0.71 | 86 | 1012.3 |
| 20260505151533 | 13 | 23 | 0.0 | 3.2 | 0.03 | 0.71 | 0.71 | 84 | 1012.3 |
| 20260505124513 | 12 | 50 | 0.0 | 0.0 | 0.00 | 0.69 | 0.69 | 90 | 1011.8 |
| 20260505123017 | 12 | 50 | 0.0 | 0.0 | 0.00 | 0.69 | 0.69 | 89 | 1011.7 |
| 20260505121518 | 12 | 20 | 0.0 | 3.2 | 0.03 | 0.69 | 0.69 | 88 | 1011.7 |
| 20260505120028 | 12 | 100 | 0.0 | 1.6 | 0.03 | 0.69 | 0.69 | 89 | 1011.8 |
| 20260505114508 | 12 | 142 | 0.0 | 1.6 | 0.05 | 0.69 | 0.69 | 89 | 1012.2 |
| 20260505113010 | 12 | 139 | 0.0 | 1.6 | 0.08 | 0.69 | 0.69 | 89 | 1012.0 |
| 20260505111535 | 12 | 261 | 0.0 | 1.6 | 0.08 | 0.66 | 0.66 | 87 | 1012.3 |
| 20260505101522 | 12 | 23 | 0.0 | 1.6 | 0.38 | 0.58 | 0.58 | 89 | 1012.5 |
| 20260505100020 | 12 | 22 | 0.0 | 3.2 | 0.41 | 0.51 | 0.51 | 88 | 1012.6 |
| 20260505094526 | 12 | 79 | 0.0 | 1.6 | 0.38 | 0.41 | 0.41 | 87 | 1012.5 |
| 20260505093027 | 12 | 136 | 0.0 | 1.6 | 0.25 | 0.28 | 0.28 | 87 | 1012.4 |
| 20260505091511 | 13 | 142 | 0.0 | 1.6 | 0.20 | 0.20 | 0.20 | 83 | 1012.6 |
| 20260505090020 | 13 | 352 | 0.0 | 4.8 | 0.10 | 0.10 | 0.10 | 76 | 1012.9 |
| 20260505084527 | 15 | 271 | 1.6 | 16.1 | 0.03 | 0.03 | 0.03 | 65 | 1012.9 |
| 20260505083023 | 15 | 8 | 4.8 | 14.5 | 0.03 | 0.03 | 0.03 | 64 | 1012.9 |
| 20260505081526 | 15 | 309 | 4.8 | 11.3 | 0.00 | 0.00 | 0.00 | 59 | 1013.1 |
| 20260505080031 | 16 | 335 | 1.6 | 8.0 | 0.00 | 0.00 | 0.00 | 51 | 1013.3 |
| 20260505074514 | 17 | 345 | 3.2 | 12.9 | 0.00 | 0.00 | 0.00 | 43 | 1013.2 |
| 20260505073017 | 17 | 6 | 3.2 | 16.1 | 0.00 | 0.00 | 0.00 | 42 | 1013.4 |
| 20260505071523 | 17 | 269 | 3.2 | 11.3 | 0.00 | 0.00 | 0.00 | 42 | 1013.1 |
| 20260505070017 | 17 | 274 | 3.2 | 9.7 | 0.00 | 0.00 | 0.00 | 43 | 1012.9 |
| 20260505064514 | 17 | 240 | 3.2 | 8.0 | 0.00 | 0.00 | 0.00 | 42 | 1013.0 |
| 20260505063018 | 17 | 177 | 1.6 | 14.5 | 0.00 | 0.00 | 0.00 | 41 | 1012.9 |
| 20260505061524 | 17 | 338 | 0.0 | 6.4 | 0.00 | 0.00 | 0.00 | 41 | 1013.3 |
| 20260505060023 | 18 | 201 | 1.6 | 9.7 | 0.00 | 0.00 | 0.00 | 40 | 1013.4 |
| 20260505054506 | 18 | 331 | 6.4 | 16.1 | 0.00 | 0.00 | 0.00 | 40 | 1013.5 |
| 20260505053019 | 18 | 9 | 4.8 | 14.5 | 0.00 | 0.00 | 0.00 | 40 | 1013.6 |
| 20260505051522 | 18 | 336 | 3.2 | 14.5 | 0.00 | 0.00 | 0.00 | 39 | 1013.6 |
| 20260505041516 | 19 | 10 | 1.6 | 9.7 | 0.00 | 0.00 | 0.00 | 36 | 1013.3 |
| 20260505040036 | 19 | 43 | 1.6 | 12.9 | 0.00 | 0.00 | 0.00 | 37 | 1013.0 |
| 20260505034534 | 20 | 190 | 3.2 | 19.3 | 0.00 | 0.00 | 0.00 | 37 | 1012.6 |
| 20260505033028 | 20 | 18 | 3.2 | 11.3 | 0.00 | 0.00 | 0.00 | 37 | 1012.4 |
| 20260505031512 | 20 | 194 | 4.8 | 17.7 | 0.00 | 0.00 | 0.00 | 35 | 1012.4 |
| 20260505030018 | 20 | 233 | 6.4 | 20.9 | 0.00 | 0.00 | 0.00 | 32 | 1012.2 |
| 20260505024522 | 21 | 350 | 9.7 | 20.9 | 0.00 | 0.00 | 0.00 | 29 | 1011.5 |
| 20260505023026 | 21 | 293 | 6.4 | 14.5 | 0.00 | 0.00 | 0.00 | 28 | 1011.5 |
| 20260505021526 | 21 | 271 | 3.2 | 16.1 | 0.00 | 0.00 | 0.00 | 29 | 1011.3 |
| 20260505020014 | 21 | 302 | 3.2 | 12.9 | 0.00 | 0.00 | 0.00 | 29 | 1011.4 |
| 20260505014518 | 21 | 219 | 3.2 | 16.1 | 0.00 | 0.00 | 0.00 | 29 | 1011.4 |
| 20260505013026 | 21 | 287 | 6.4 | 19.3 | 0.00 | 0.00 | 0.00 | 29 | 1011.6 |
| 20260505011528 | 22 | 204 | 6.4 | 19.3 | 0.00 | 0.00 | 0.00 | 27 | 1011.8 |
| 20260505010028 | 22 | 312 | 6.4 | 12.9 | 0.00 | 0.00 | 0.00 | 30 | 1011.8 |
| 20260505004518 | 22 | 299 | 4.8 | 19.3 | 0.00 | 0.00 | 0.00 | 29 | 1011.7 |
| 20260505003018 | 22 | 259 | 4.8 | 11.3 | 0.00 | 0.00 | 0.00 | 29 | 1011.6 |
| 20260505001524 | 23 | 272 | 3.2 | 9.7 | 0.00 | 0.00 | 0.00 | 29 | 1011.2 |
| 20260505000042 | 23 | 342 | 4.8 | 9.7 | 0.00 | 0.00 | 0.00 | 28 | 1011.2 |
| 20260504234528 | 23 | 277 | 3.2 | 14.5 | 0.00 | 0.00 | 0.00 | 26 | 1011.4 |
| 20260504233016 | 23 | 264 | 4.8 | 12.9 | 0.00 | 0.00 | 0.00 | 26 | 1011.5 |
| 20260504231519 | 23 | 208 | 3.2 | 17.7 | 0.00 | 0.00 | 0.00 | 28 | 1011.6 |
| 20260504230024 | 23 | 54 | 1.6 | 16.1 | 0.00 | 0.00 | 0.00 | 27 | 1011.8 |
| 20260504224525 | 23 | 287 | 8.0 | 17.7 | 0.00 | 0.00 | 0.00 | 27 | 1011.8 |
| 20260504223029 | 23 | 11 | 8.0 | 20.9 | 0.00 | 0.00 | 0.00 | 26 | 1011.5 |